Hourly Data Report for June 13, 2018

TORONTO CITY
ONTARIO
Current Station Operator: ECCC - MSC

43°40'00.000" N
79°24'00.000" W
112.50 m
6158355
71508
XTO

Download Data

Hourly Data (June 2018)
Hourly Data Report for June 13, 2018
TIME
LST
Temp Definition
°C
Dew Point Definition
°C
Rel Hum Definition
%
Precip. Amount Definition
mm

Wind Dir Definition
10's deg

Wind Spd Definition
km/h
Visibility Definition
km
Stn Press Definition
kPa
Hmdx Definition


Wind Chill Definition


Weather Definition


00:00 20.8 13.3 62 0.0 LegendMM LegendMM   99.79     LegendNANA
01:00 20.5 13.9 66 0.0 LegendMM LegendMM   99.73     LegendNANA
02:00 20.1 14.1 68 0.0 LegendMM LegendMM   99.68     LegendNANA
03:00 20.1 15.2 73 0.0 LegendMM LegendMM   99.63     LegendNANA
04:00 20.6 16.2 76 0.0 LegendMM LegendMM   99.58 25   LegendNANA
05:00 20.6 16.3 77 0.0 LegendMM LegendMM   99.55 25   LegendNANA
06:00 19.5 16.6 83 0.0 LegendMM LegendMM   99.49     LegendNANA
07:00 19.9 16.8 82 0.0 LegendMM LegendMM   99.45     LegendNANA
08:00 19.6 17.4 88 0.0 LegendMM LegendMM   99.41     LegendNANA
09:00 20.4 17.7 85 0.0 LegendMM LegendMM   99.42 26   LegendNANA
10:00 21.7 18.1 80 0.0 LegendMM LegendMM   99.36 28   LegendNANA
11:00 23.9 19.3 75 0.0 LegendMM LegendMM   99.35 31   LegendNANA
12:00 23.4 17.9 71 0.0 LegendMM LegendMM   99.29 29   LegendNANA
13:00 25.8 18.0 62 0.0 LegendMM LegendMM   99.17 32   LegendNANA
14:00 26.8 17.2 56 0.0 LegendMM LegendMM   99.02 32   LegendNANA
15:00 24.9 16.6 60 0.0 LegendMM LegendMM   99.00 30   LegendNANA
16:00 21.8 18.6 82 8.5 LegendMM LegendMM   99.12 28   LegendNANA
17:00 24.5 11.4 44 0.0 LegendMM LegendMM   99.21 26   LegendNANA
18:00 22.9 8.8 41 0.0 LegendMM LegendMM   99.33     LegendNANA
19:00 21.6 8.1 42 0.0 LegendMM LegendMM   99.43     LegendNANA
20:00 20.8 9.5 48 0.0 LegendMM LegendMM   99.48     LegendNANA
21:00 19.2 7.4 46 0.0 LegendMM LegendMM   99.54     LegendNANA
22:00 18.5 6.6 46 0.0 LegendMM LegendMM   99.59     LegendNANA
23:00 18.3 6.4 46 0.0 LegendMM LegendMM   99.63     LegendNANA

Notes on Data Quality.

Legend

  • E = Estimated
  • M = Missing
  • NA = Not Available*
  • [empty] = Indicates an unobserved value
Date modified: